User: anonymous   Login
Location: Linz
(48.3300°N, 14.3000°E)
Time: 07:27:12
(UTC+01:00)
Language:

N. Korean satellite - Orbit

View from above orbital plane
View from above orbital plane
View from above satellite
View from above satellite

Ground track
Ground track

The orbit data is extracted from the following two-line orbital elements,

1 39026U 12072A   17322.65869210  .00002569  00000-0  10026-3 0  9998
2 39026  97.2172 335.2239 0039718 352.5402   7.5241 15.26082206273548
Epoch (UTC): 18 November 2017 15:48:30
Eccentricity: 0.0039718
inclination: 97.2172°
perigee height: 460 km
apogee height: 515 km
right ascension of ascending node: 335.2239°
argument of perigee: 352.5402°
revolutions per day: 15.26082206
mean anomaly at epoch: 7.5241°
orbit number at epoch: 27354

The dashed part of the orbit path shows where the satellite is in the earth's shadow,  

DLR